Weather History for Glendive, MT

Change the Weather History Date:

Saturday, March 30, 2013

  Actual Average Record
Temperature  
Mean Temperature 40 °F -  
Max Temperature 53 °F 45 °F 71 °F (2012)
Min Temperature 28 °F 24 °F 15 °F (2008)
Degree Days  
Heating Degree Days 24    
Moisture  
Dew Point 30 °F    
Average Humidity 71    
Maximum Humidity 93    
Minimum Humidity 46    
Precipitation  
Precipitation 0.00 in - - ()
Sea Level Pressure  
Sea Level Pressure 30.08 in    
Wind  
Wind Speed 9 mph (NW)    
Max Wind Speed 30 mph    
Max Gust Speed 37 mph    
Visibility 10 miles    
Events      
Averages and records for this station are not official NWS values.
T = Trace of Precipitation, MM = Missing Value Source: NWS Daily Summary

Daily Weather History Graph

Daily Weather History Graph

Search for Another Location

Airport:

Trip Planner

Search our weather history database for the weather conditions in past years. The results will help you decide how hot, cold, wet, or windy it might be!

Date:

Astronomy

Mar. 30, 2013 Rise Set
Actual Time 6:41 AM MDT 7:26 PM MDT
Civil Twilight 6:10 AM MDT 7:57 PM MDT
Nautical Twilight 5:34 AM MDT 8:34 PM MDT
Astronomical Twilight 4:55 AM MDT 9:12 PM MDT
Moon 11:52 PM MDT (3/30) 8:23 AM MDT (3/30)
Length of Visible Light 13h 46m
Length of Day
12h 44m
Waning Gibbous, 86% of the Moon is Illuminated
Mar 30
Waning Gibbous
Apr 2
Last Quarter
Apr 10
New
Apr 18
First Quarter
Apr 25
Full

Hourly Weather History & Observations

Time (MDT) Temp. Windchill Dew Point Humidity Pressure Visibility Wind Dir Wind Speed Gust Speed Precip Events Conditions
12:15 AM 35.6 °F 29.2 °F 32.0 °F 87% 30.05 in 10.0 mi WNW 8.1 mph - N/A   Clear
12:35 AM 37.4 °F 31.4 °F 33.8 °F 87% 30.05 in 10.0 mi WNW 8.1 mph - N/A   Clear
12:55 AM 35.6 °F 28.0 °F 30.2 °F 81% 30.05 in 10.0 mi West 10.4 mph - N/A   Clear
1:15 AM 35.6 °F 29.2 °F 30.2 °F 81% 30.05 in 10.0 mi WNW 8.1 mph - N/A   Clear
1:35 AM 33.8 °F 27.0 °F 30.2 °F 87% 30.05 in 10.0 mi West 8.1 mph - N/A   Clear
1:55 AM 33.8 °F 25.8 °F 30.2 °F 87% 30.05 in 10.0 mi WNW 10.4 mph - N/A   Clear
2:15 AM 33.8 °F 26.4 °F 30.2 °F 87% 30.05 in 10.0 mi WNW 9.2 mph - N/A   Clear
2:35 AM 35.6 °F 29.2 °F 33.8 °F 93% 30.05 in 10.0 mi WNW 8.1 mph - N/A   Clear
2:55 AM 33.8 °F 27.0 °F 30.2 °F 87% 30.06 in 10.0 mi WNW 8.1 mph - N/A   Clear
3:15 AM 33.8 °F 25.8 °F 30.2 °F 87% 30.06 in 10.0 mi West 10.4 mph - N/A   Clear
3:35 AM 32.0 °F 26.4 °F 28.4 °F 87% 30.06 in 10.0 mi NW 5.8 mph - N/A   Clear
3:55 AM 33.8 °F - 32.0 °F 93% 30.06 in 10.0 mi Calm Calm - N/A   Clear
4:15 AM 33.8 °F 30.8 °F 30.2 °F 87% 30.06 in 10.0 mi NW 3.5 mph - N/A   Clear
4:35 AM 33.8 °F 30.8 °F 30.2 °F 87% 30.06 in 10.0 mi NW 3.5 mph - N/A   Clear
4:55 AM 33.8 °F 28.6 °F 28.4 °F 81% 30.07 in 10.0 mi West 5.8 mph - N/A   Clear
5:15 AM 33.8 °F 28.6 °F 30.2 °F 87% 30.06 in 10.0 mi WNW 5.8 mph - N/A   Clear
5:35 AM 35.6 °F 28.6 °F 30.2 °F 81% 30.07 in 10.0 mi NW 9.2 mph - N/A   Clear
6:15 AM 33.8 °F 30.8 °F 28.4 °F 81% 30.07 in 10.0 mi WNW 3.5 mph - N/A   Clear
6:35 AM 33.8 °F - 28.4 °F 81% 30.08 in 10.0 mi Calm Calm - N/A   Clear
7:15 AM 30.2 °F 26.7 °F 26.6 °F 86% 30.08 in 10.0 mi West 3.5 mph - N/A   Clear
7:35 AM 33.8 °F - 28.4 °F 81% 30.08 in 10.0 mi Calm Calm - N/A   Clear
8:15 AM 35.6 °F - 30.2 °F 81% 30.08 in 10.0 mi Calm Calm - N/A   Clear
8:35 AM 37.4 °F - 32.0 °F 81% 30.08 in 10.0 mi Calm Calm - N/A   Clear
9:15 AM 39.2 °F 37.0 °F 33.8 °F 81% 30.08 in 10.0 mi SE 3.5 mph - N/A   Clear
9:55 AM 41.0 °F 38.0 °F 35.6 °F 81% 30.08 in 10.0 mi SSE 4.6 mph - N/A   Clear
10:15 AM 44.6 °F 41.4 °F 35.6 °F 71% 30.08 in 10.0 mi South 5.8 mph - N/A   Clear
10:35 AM 44.6 °F 42.2 °F 35.6 °F 71% 30.08 in 10.0 mi SSW 4.6 mph - N/A   Clear
10:55 AM 46.4 °F - 35.6 °F 66% 30.08 in 10.0 mi Calm Calm - N/A   Clear
11:15 AM 48.2 °F - 37.4 °F 66% 30.08 in 10.0 mi Calm Calm - N/A   Clear
11:35 AM 50.0 °F - 35.6 °F 58% 30.08 in 10.0 mi WNW 8.1 mph - N/A   Clear
11:55 AM 51.8 °F - 32.0 °F 47% 30.08 in 10.0 mi NNW 12.7 mph 17.3 mph N/A   Clear
12:15 PM 50.0 °F - 33.8 °F 54% 30.07 in 10.0 mi NW 11.5 mph - N/A   Clear
12:35 PM 51.8 °F - 33.8 °F 50% 30.07 in 10.0 mi NNW 13.8 mph - N/A   Clear
1:15 PM 53.6 °F - 35.6 °F 51% 30.06 in 10.0 mi NW 18.4 mph - N/A   Clear
1:35 PM 53.6 °F - 35.6 °F 51% 30.07 in 10.0 mi NW 25.3 mph 33.4 mph N/A   Partly Cloudy
1:55 PM 51.8 °F - 35.6 °F 54% 30.07 in 10.0 mi NW 27.6 mph 35.7 mph N/A   Partly Cloudy
2:16 PM 46.4 °F 37.2 °F 32.0 °F 57% 30.08 in 10.0 mi NNW 29.9 mph 34.5 mph N/A   Clear
2:35 PM 46.4 °F 37.7 °F 30.2 °F 53% 30.08 in 10.0 mi NNW 26.5 mph 36.8 mph N/A   Clear
2:55 PM 44.6 °F 35.1 °F 30.2 °F 57% 30.09 in 10.0 mi North 27.6 mph 34.5 mph N/A   Clear
3:15 PM 46.4 °F 37.7 °F 33.8 °F 62% 30.11 in 10.0 mi North 26.5 mph 31.1 mph N/A   Scattered Clouds
3:35 PM 44.6 °F 36.9 °F 33.8 °F 66% 30.10 in 10.0 mi North 18.4 mph 25.3 mph N/A   Mostly Cloudy
3:55 PM 44.6 °F 38.1 °F 35.6 °F 71% 30.10 in 10.0 mi NNW 13.8 mph 18.4 mph N/A   Partly Cloudy
4:15 PM 46.4 °F 39.0 °F 35.6 °F 66% 30.09 in 10.0 mi NW 19.6 mph 24.2 mph N/A   Clear
4:55 PM 48.2 °F - 33.8 °F 58% 30.09 in 10.0 mi NNW 24.2 mph - N/A   Partly Cloudy
5:15 PM 48.2 °F - 32.0 °F 54% 30.09 in 10.0 mi NNW 19.6 mph 27.6 mph N/A   Clear
5:55 PM 48.2 °F - 32.0 °F 54% 30.10 in 10.0 mi NNW 20.7 mph 25.3 mph N/A   Clear
6:15 PM 46.4 °F 40.1 °F 30.2 °F 53% 30.10 in 10.0 mi North 15.0 mph 24.2 mph N/A   Clear
6:35 PM 44.6 °F 36.6 °F 24.8 °F 46% 30.11 in 10.0 mi NNW 19.6 mph 25.3 mph N/A   Clear
6:55 PM 42.8 °F 35.8 °F 26.6 °F 53% 30.11 in 10.0 mi NNW 13.8 mph - N/A   Clear
7:15 PM 41.0 °F 32.8 °F 28.4 °F 61% 30.11 in 10.0 mi NNW 16.1 mph - N/A   Clear
7:35 PM 39.2 °F 32.0 °F 24.8 °F 56% 30.11 in 10.0 mi NNW 11.5 mph - N/A   Clear
7:55 PM 37.4 °F 31.4 °F 24.8 °F 60% 30.12 in 10.0 mi NNW 8.1 mph - N/A   Clear
8:15 PM 37.4 °F 31.4 °F 24.8 °F 60% 30.12 in 10.0 mi NNW 8.1 mph - N/A   Clear
8:35 PM 35.6 °F 28.6 °F 24.8 °F 65% 30.12 in 10.0 mi NNW 9.2 mph - N/A   Clear
8:55 PM 33.8 °F 27.7 °F 24.8 °F 70% 30.13 in 10.0 mi NW 6.9 mph - N/A   Clear
9:15 PM 32.0 °F 24.8 °F 26.6 °F 80% 30.13 in 10.0 mi NNW 8.1 mph - N/A   Clear
9:35 PM 33.8 °F 26.4 °F 26.6 °F 75% 30.13 in 10.0 mi NNW 9.2 mph - N/A   Clear
9:55 PM 33.8 °F 26.4 °F 24.8 °F 70% 30.13 in 10.0 mi NW 9.2 mph - N/A   Clear
10:15 PM 30.2 °F 22.6 °F 23.0 °F 75% 30.13 in 10.0 mi West 8.1 mph - N/A   Clear
10:55 PM 30.2 °F 22.6 °F 24.8 °F 80% 30.12 in 10.0 mi WNW 8.1 mph - N/A   Clear
11:15 PM 30.2 °F 23.4 °F 21.2 °F 69% 30.10 in 10.0 mi WNW 6.9 mph - N/A   Clear
11:35 PM 28.4 °F 22.2 °F 23.0 °F 80% 30.10 in 10.0 mi NW 5.8 mph - N/A   Clear
11:55 PM 28.4 °F 21.2 °F 21.2 °F 74% 30.09 in 10.0 mi NW 6.9 mph - N/A   Clear